When you browse on this site, cookies collect data to enhance your experience and personalize the content and advertising you see.
Visit our Privacy Policy to learn more. By continuing to use the site, you agree to this use of cookies and data.
  • En España
  • Lista de países
  • Para 7 días
  • Temperatura del agua
  • Mapa Satelital
  • El tiempo en el mapa
  • Informadores
  • user-avatar
    Iniciar sesión

    Tiempo cada hora Novi Sad

    Hoy, 21 Mayo, Martes

    Tiempo Temperatura Precipitaciones Viento Presión Humedad
    00:00 +11°C° 0 mm 3 mps 743 mmHg 79%
    01:00 +10°C° 0 mm 2 mps 743 mmHg 82%
    02:00 +10°C° 0 mm 2 mps 743 mmHg 82%
    03:00 +10°C° 0 mm 2 mps 743 mmHg 82%
    04:00 +9°C° 0 mm 2 mps 743 mmHg 82%
    05:00 +12°C° 0 mm 2 mps 743 mmHg 78%
    06:00 +12°C° 0 mm 3 mps 743 mmHg 74%
    07:00 +14°C° 0 mm 3 mps 743 mmHg 69%
    08:00 +17°C° 0 mm 3 mps 743 mmHg 63%
    09:00 +19°C° 0 mm 3 mps 743 mmHg 56%
    10:00 +20°C° 0 mm 3 mps 743 mmHg 49%
    11:00 +21°C° 0 mm 3 mps 743 mmHg 47%
    12:00 +22°C° 0 mm 3 mps 743 mmHg 44%
    13:00 +22°C° 0 mm 3 mps 743 mmHg 41%
    14:00 +22°C° 0 mm 3 mps 743 mmHg 45%
    15:00 +21°C° 0 mm 4 mps 744 mmHg 49%
    16:00 +21°C° 0 mm 4 mps 744 mmHg 53%
    17:00 +19°C° 0.1 mm 4 mps 744 mmHg 61%
    18:00 +18°C° 0.1 mm 3 mps 744 mmHg 69%
    19:00 +16°C° 0.1 mm 3 mps 744 mmHg 77%
    20:00 +14°C° 0 mm 3 mps 744 mmHg 78%
    21:00 +14°C° 0 mm 2 mps 745 mmHg 80%
    22:00 +14°C° 0 mm 2 mps 745 mmHg 82%
    23:00 +14°C° 0 mm 2 mps 745 mmHg 81%

    Mañana, 22 Mayo, Miércoles

    Tiempo Temperatura Precipitaciones Viento Presión Humedad
    00:00 +13°C° 0 mm 2 mps 746 mmHg 81%
    01:00 +12°C° 0 mm 3 mps 746 mmHg 81%
    02:00 +12°C° 0 mm 3 mps 746 mmHg 82%
    03:00 +11°C° 0 mm 3 mps 746 mmHg 82%
    04:00 +11°C° 0 mm 3 mps 746 mmHg 83%
    05:00 +13°C° 0 mm 3 mps 746 mmHg 79%
    06:00 +14°C° 0 mm 4 mps 746 mmHg 76%
    07:00 +17°C° 0 mm 4 mps 746 mmHg 72%
    08:00 +17°C° 0.1 mm 5 mps 746 mmHg 68%
    09:00 +19°C° 0.1 mm 5 mps 746 mmHg 65%
    10:00 +21°C° 0.1 mm 6 mps 746 mmHg 62%
    11:00 +21°C° 1 mm 6 mps 746 mmHg 62%
    12:00 +21°C° 1 mm 6 mps 746 mmHg 63%
    13:00 +22°C° 1 mm 5 mps 746 mmHg 63%
    14:00 +22°C° 1.2 mm 5 mps 746 mmHg 65%
    15:00 +21°C° 1.2 mm 5 mps 746 mmHg 67%
    16:00 +21°C° 1.2 mm 4 mps 746 mmHg 69%
    17:00 +20°C° 0.6 mm 3 mps 746 mmHg 73%
    18:00 +18°C° 0.6 mm 3 mps 746 mmHg 78%
    19:00 +17°C° 0.6 mm 2 mps 746 mmHg 83%
    20:00 +16°C° 0.1 mm 2 mps 747 mmHg 84%
    21:00 +15°C° 0.1 mm 2 mps 747 mmHg 85%
    22:00 +14°C° 0.1 mm 2 mps 748 mmHg 86%
    23:00 +14°C° 0 mm 2 mps 748 mmHg 87%

    Pasado mañana, 23 Mayo, Jueves

    Tiempo Temperatura Precipitaciones Viento Presión Humedad
    00:00 +14°C° 0 mm 2 mps 748 mmHg 88%
    01:00 +13°C° 0 mm 2 mps 748 mmHg 88%
    02:00 +13°C° 0 mm 2 mps 748 mmHg 90%
    03:00 +12°C° 0 mm 2 mps 748 mmHg 91%
    04:00 +11°C° 0 mm 3 mps 748 mmHg 92%
    05:00 +12°C° 0 mm 3 mps 748 mmHg 88%
    06:00 +13°C° 0 mm 4 mps 748 mmHg 83%
    07:00 +15°C° 0 mm 4 mps 749 mmHg 79%
    08:00 +16°C° 0 mm 5 mps 748 mmHg 75%
    09:00 +17°C° 0 mm 5 mps 748 mmHg 71%
    10:00 +19°C° 0 mm 6 mps 748 mmHg 67%
    11:00 +19°C° 0.1 mm 6 mps 748 mmHg 66%
    12:00 +19°C° 0.1 mm 6 mps 748 mmHg 65%
    13:00 +19°C° 0.1 mm 6 mps 748 mmHg 64%
    14:00 +19°C° 0 mm 5 mps 747 mmHg 66%
    15:00 +19°C° 0 mm 5 mps 747 mmHg 67%
    16:00 +19°C° 0 mm 4 mps 747 mmHg 69%
    17:00 +18°C° 0.2 mm 3 mps 747 mmHg 74%
    18:00 +17°C° 0.2 mm 3 mps 747 mmHg 79%
    19:00 +16°C° 0.2 mm 3 mps 747 mmHg 84%
    20:00 +14°C° 0 mm 3 mps 747 mmHg 87%
    21:00 +14°C° 0 mm 3 mps 747 mmHg 89%
    22:00 +13°C° 0 mm 3 mps 748 mmHg 92%
    23:00 +12°C° 0 mm 3 mps 748 mmHg 92%

    24 Mayo, Viernes

    Tiempo Temperatura Precipitaciones Viento Presión Humedad
    00:00 +12°C° 0 mm 3 mps 747 mmHg 93%
    01:00 +11°C° 0 mm 3 mps 747 mmHg 93%
    02:00 +11°C° 0 mm 3 mps 747 mmHg 93%
    03:00 +10°C° 0 mm 3 mps 747 mmHg 93%
    04:00 +9°C° 0 mm 3 mps 747 mmHg 93%
    05:00 +10°C° 0 mm 3 mps 747 mmHg 89%
    06:00 +11°C° 0 mm 3 mps 748 mmHg 84%
    07:00 +12°C° 0 mm 3 mps 748 mmHg 80%
    08:00 +13°C° 0 mm 3 mps 748 mmHg 77%
    09:00 +14°C° 0 mm 3 mps 748 mmHg 75%
    10:00 +16°C° 0 mm 3 mps 748 mmHg 72%
    11:00 +17°C° 0 mm 3 mps 747 mmHg 68%
    12:00 +19°C° 0 mm 3 mps 747 mmHg 64%
    13:00 +20°C° 0 mm 3 mps 747 mmHg 60%
    14:00 +21°C° 0.1 mm 4 mps 746 mmHg 59%
    15:00 +21°C° 0.1 mm 4 mps 746 mmHg 57%
    16:00 +21°C° 0.1 mm 4 mps 746 mmHg 55%
    17:00 +20°C° 0 mm 4 mps 746 mmHg 60%
    18:00 +18°C° 0 mm 3 mps 746 mmHg 65%
    19:00 +17°C° 0 mm 2 mps 746 mmHg 71%
    20:00 +16°C° 0 mm 2 mps 746 mmHg 73%
    21:00 +15°C° 0 mm 2 mps 746 mmHg 75%
    22:00 +14°C° 0 mm 2 mps 747 mmHg 76%
    23:00 +14°C° 0 mm 2 mps 747 mmHg 78%

    25 Mayo, Sábado

    Tiempo Temperatura Precipitaciones Viento Presión Humedad
    00:00 +13°C° 0 mm 2 mps 747 mmHg 80%
    01:00 +12°C° 0 mm 2 mps 747 mmHg 82%
    02:00 +12°C° 0 mm 2 mps 747 mmHg 83%
    03:00 +12°C° 0 mm 2 mps 747 mmHg 85%
    04:00 +10°C° 0 mm 2 mps 747 mmHg 87%
    05:00 +13°C° 0 mm 2 mps 747 mmHg 82%
    06:00 +14°C° 0 mm 2 mps 747 mmHg 78%
    07:00 +16°C° 0 mm 2 mps 748 mmHg 73%
    08:00 +17°C° 0 mm 2 mps 748 mmHg 66%
    09:00 +19°C° 0 mm 3 mps 748 mmHg 58%
    10:00 +21°C° 0 mm 3 mps 748 mmHg 51%
    11:00 +22°C° 0 mm 3 mps 748 mmHg 48%
    12:00 +22°C° 0 mm 3 mps 748 mmHg 45%
    13:00 +24°C° 0 mm 3 mps 748 mmHg 42%
    14:00 +24°C° 0 mm 3 mps 747 mmHg 43%
    15:00 +25°C° 0 mm 2 mps 747 mmHg 44%
    16:00 +25°C° 0 mm 2 mps 747 mmHg 45%
    17:00 +23°C° 0 mm 2 mps 747 mmHg 51%
    18:00 +22°C° 0 mm 1 mps 747 mmHg 57%
    19:00 +20°C° 0 mm 1 mps 747 mmHg 64%
    20:00 +19°C° 0 mm 1 mps 747 mmHg 66%
    21:00 +18°C° 0 mm 1 mps 747 mmHg 68%
    22:00 +18°C° 0 mm 1 mps 748 mmHg 70%
    23:00 +16°C° 0 mm 1 mps 748 mmHg 72%

    26 Mayo, Domingo

    Tiempo Temperatura Precipitaciones Viento Presión Humedad
    00:00 +16°C° 0 mm 1 mps 748 mmHg 73%
    01:00 +15°C° 0 mm 2 mps 748 mmHg 75%
    02:00 +15°C° 0 mm 2 mps 747 mmHg 76%
    03:00 +14°C° 0 mm 1 mps 747 mmHg 76%
    04:00 +14°C° 0 mm 1 mps 747 mmHg 77%
    05:00 +16°C° 0 mm 2 mps 747 mmHg 73%
    06:00 +17°C° 0 mm 2 mps 747 mmHg 70%
    07:00 +18°C° 0 mm 2 mps 747 mmHg 66%
    08:00 +20°C° 0 mm 2 mps 747 mmHg 61%
    09:00 +23°C° 0 mm 2 mps 747 mmHg 57%
    10:00 +24°C° 0 mm 2 mps 747 mmHg 52%
    11:00 +25°C° 0 mm 3 mps 747 mmHg 51%
    12:00 +26°C° 0 mm 3 mps 747 mmHg 49%
    13:00 +27°C° 0 mm 4 mps 747 mmHg 48%
    14:00 +27°C° 0 mm 4 mps 747 mmHg 50%
    15:00 +26°C° 0 mm 4 mps 747 mmHg 52%
    16:00 +26°C° 0 mm 4 mps 747 mmHg 54%
    17:00 +25°C° 0 mm 3 mps 747 mmHg 61%
    18:00 +22°C° 0 mm 3 mps 747 mmHg 68%
    19:00 +20°C° 0 mm 2 mps 747 mmHg 75%
    20:00 +19°C° 0.1 mm 2 mps 747 mmHg 77%
    21:00 +18°C° 0.1 mm 2 mps 748 mmHg 80%
    22:00 +18°C° 0.1 mm 1 mps 748 mmHg 82%
    23:00 +18°C° 0 mm 1 mps 748 mmHg 83%
    Mostrar más